Total_Precipitation_Accumulation
0.18 0.21 0.12 0.04 0.04 0.09 0.11 0.11 0.18 0.26 0.30 0.25 0.26 0.34 0.34 0.35 0.42 0.51 0.61 0.66 0.58 0.50 0.39 0.33 0.35 0.33 0.39 0.39 0.37 0.28 0.21 0.21 0.25 0.22 0.10 0.03 0.01 0.00 0.00 0.00 0.00 0.00 0.00
0.11 0.12 0.05 0.03 0.05 0.11 0.15 0.10 0.11 0.15 0.16 0.16 0.20 0.26 0.29 0.34 0.40 0.49 0.58 0.63 0.61 0.52 0.44 0.36 0.33 0.31 0.34 0.36 0.39 0.33 0.27 0.21 0.24 0.25 0.12 0.05 0.02 0.00 0.00 0.00 0.00 0.00 0.00
0.02 0.02 0.01 0.01 0.04 0.07 0.09 0.08 0.06 0.07 0.09 0.12 0.17 0.22 0.25 0.29 0.37 0.42 0.46 0.47 0.41 0.37 0.34 0.29 0.28 0.27 0.28 0.31 0.33 0.30 0.25 0.18 0.20 0.25 0.16 0.06 0.02 0.00 0.00 0.00 0.00 0.00 0.00
0.00 0.00 0.01 0.01 0.01 0.03 0.04 0.03 0.02 0.03 0.03 0.05 0.09 0.11 0.16 0.20 0.24 0.28 0.31 0.36 0.32 0.25 0.20 0.20 0.22 0.19 0.17 0.20 0.25 0.25 0.27 0.24 0.24 0.25 0.19 0.07 0.03 0.01 0.00 0.00 0.00 0.00 0.00
0.02 0.01 0.01 0.01 0.01 0.02 0.04 0.01 0.01 0.01 0.01 0.03 0.08 0.11 0.14 0.16 0.18 0.24 0.24 0.29 0.30 0.26 0.22 0.19 0.16 0.15 0.15 0.15 0.18 0.25 0.30 0.30 0.29 0.27 0.22 0.11 0.04 0.01 0.01 0.00 0.00 0.00 0.00
0.05 0.04 0.04 0.04 0.04 0.04 0.03 0.02 0.02 0.02 0.02 0.03 0.05 0.09 0.15 0.13 0.20 0.24 0.25 0.28 0.27 0.22 0.18 0.21 0.24 0.21 0.13 0.10 0.10 0.16 0.22 0.27 0.28 0.28 0.27 0.18 0.08 0.03 0.01 0.00 0.00 0.00 0.00
0.11 0.11 0.11 0.12 0.09 0.07 0.04 0.03 0.04 0.04 0.04 0.05 0.04 0.09 0.15 0.20 0.24 0.19 0.23 0.27 0.24 0.19 0.14 0.16 0.21 0.22 0.26 0.22 0.16 0.12 0.11 0.18 0.28 0.34 0.32 0.28 0.29 0.17 0.06 0.02 0.01 0.01 0.00
0.22 0.22 0.20 0.22 0.20 0.15 0.10 0.10 0.10 0.09 0.09 0.08 0.08 0.10 0.15 0.21 0.20 0.15 0.24 0.28 0.27 0.27 0.21 0.18 0.19 0.19 0.21 0.31 0.36 0.29 0.23 0.24 0.35 0.25 0.24 0.38 0.40 0.28 0.15 0.08 0.04 0.02 0.02
0.23 0.28 0.30 0.31 0.29 0.23 0.18 0.25 0.30 0.25 0.19 0.14 0.11 0.12 0.16 0.18 0.16 0.11 0.14 0.23 0.25 0.24 0.21 0.19 0.19 0.20 0.25 0.31 0.35 0.33 0.31 0.31 0.52 0.54 0.49 0.45 0.37 0.27 0.18 0.13 0.07 0.03 0.02
0.18 0.22 0.26 0.29 0.31 0.34 0.42 0.48 0.47 0.41 0.31 0.25 0.18 0.14 0.15 0.15 0.16 0.07 0.04 0.10 0.17 0.25 0.26 0.22 0.25 0.22 0.25 0.23 0.21 0.26 0.27 0.33 0.39 0.39 0.37 0.33 0.26 0.20 0.13 0.10 0.07 0.05 0.03
0.04 0.09 0.17 0.28 0.34 0.43 0.54 0.55 0.52 0.44 0.34 0.28 0.23 0.17 0.13 0.15 0.24 0.14 0.08 0.13 0.17 0.22 0.26 0.27 0.26 0.26 0.21 0.18 0.19 0.24 0.31 0.40 0.39 0.40 0.38 0.29 0.18 0.12 0.09 0.08 0.06 0.05 0.05
0.03 0.07 0.12 0.20 0.28 0.42 0.50 0.49 0.46 0.42 0.38 0.34 0.31 0.26 0.23 0.27 0.28 0.22 0.16 0.18 0.18 0.22 0.23 0.21 0.19 0.19 0.16 0.15 0.16 0.21 0.24 0.28 0.27 0.29 0.31 0.27 0.21 0.15 0.12 0.10 0.09 0.07 0.05
0.01 0.02 0.06 0.11 0.22 0.36 0.39 0.38 0.41 0.41 0.39 0.37 0.34 0.30 0.26 0.24 0.28 0.28 0.18 0.11 0.08 0.16 0.19 0.15 0.14 0.13 0.12 0.11 0.12 0.15 0.16 0.20 0.24 0.26 0.25 0.26 0.28 0.25 0.20 0.15 0.10 0.08 0.06
0.00 0.00 0.01 0.02 0.05 0.10 0.15 0.19 0.25 0.30 0.31 0.30 0.31 0.34 0.34 0.30 0.24 0.20 0.20 0.16 0.12 0.12 0.10 0.05 0.06 0.07 0.08 0.10 0.12 0.11 0.14 0.27 0.34 0.34 0.33 0.31 0.32 0.29 0.26 0.22 0.19 0.15 0.12
0.00 0.00 0.01 0.02 0.02 0.03 0.05 0.09 0.12 0.15 0.18 0.23 0.28 0.31 0.30 0.31 0.25 0.20 0.22 0.22 0.25 0.27 0.22 0.13 0.07 0.07 0.07 0.08 0.09 0.13 0.23 0.32 0.38 0.36 0.34 0.30 0.30 0.31 0.30 0.27 0.24 0.21 0.18
0.00 0.00 0.00 0.00 0.01 0.01 0.01 0.02 0.04 0.06 0.09 0.11 0.14 0.17 0.16 0.21 0.24 0.23 0.24 0.24 0.20 0.19 0.20 0.23 0.22 0.21 0.18 0.14 0.12 0.11 0.15 0.23 0.31 0.39 0.37 0.34 0.28 0.27 0.27 0.26 0.26 0.22 0.19
0.00 0.00 0.00 0.00 0.01 0.01 0.02 0.03 0.03 0.02 0.02 0.03 0.05 0.08 0.10 0.09 0.10 0.14 0.19 0.22 0.20 0.17 0.19 0.24 0.25 0.23 0.20 0.15 0.11 0.09 0.08 0.11 0.18 0.27 0.34 0.39 0.39 0.35 0.30 0.26 0.22 0.20 0.18
0.00 0.00 0.01 0.05 0.07 0.04 0.04 0.07 0.09 0.10 0.06 0.02 0.02 0.03 0.04 0.04 0.02 0.03 0.04 0.07 0.09 0.09 0.11 0.14 0.14 0.14 0.13 0.11 0.07 0.06 0.07 0.06 0.08 0.12 0.19 0.28 0.38 0.45 0.45 0.40 0.38 0.34 0.29
0.00 0.01 0.02 0.06 0.07 0.07 0.10 0.12 0.11 0.11 0.09 0.04 0.02 0.01 0.01 0.01 0.01 0.01 0.02 0.03 0.04 0.03 0.03 0.05 0.06 0.06 0.06 0.05 0.04 0.03 0.05 0.07 0.07 0.08 0.10 0.14 0.21 0.29 0.39 0.45 0.47 0.52 0.49
0.00 0.00 0.01 0.03 0.04 0.06 0.08 0.09 0.08 0.06 0.06 0.04 0.03 0.02 0.01 0.02 0.02 0.01 0.01 0.02 0.02 0.02 0.02 0.03 0.03 0.03 0.03 0.03 0.03 0.02 0.02 0.04 0.06 0.07 0.09 0.10 0.12 0.15 0.21 0.29 0.34 0.36 0.38
0.00 0.00 0.00 0.01 0.02 0.03 0.03 0.03 0.04 0.03 0.03 0.02 0.01 0.01 0.01 0.04 0.04 0.03 0.02 0.02 0.02 0.02 0.02 0.02 0.02 0.03 0.04 0.05 0.10 0.11 0.08 0.06 0.07 0.08 0.08 0.09 0.09 0.11 0.13 0.16 0.20 0.23 0.27
0.00 0.00 0.01 0.02 0.04 0.03 0.02 0.02 0.03 0.03 0.03 0.02 0.01 0.01 0.01 0.03 0.04 0.04 0.03 0.03 0.03 0.02 0.02 0.02 0.03 0.04 0.05 0.05 0.09 0.15 0.17 0.14 0.10 0.09 0.09 0.10 0.11 0.10 0.11 0.12 0.13 0.14 0.16
0.00 0.00 0.01 0.02 0.03 0.01 0.01 0.03 0.03 0.03 0.02 0.01 0.01 0.01 0.02 0.03 0.03 0.02 0.02 0.03 0.05 0.05 0.06 0.05 0.04 0.05 0.05 0.06 0.08 0.09 0.10 0.13 0.15 0.15 0.13 0.12 0.13 0.14 0.15 0.14 0.14 0.14 0.14
0.00 0.00 0.01 0.02 0.02 0.02 0.02 0.03 0.03 0.02 0.02 0.02 0.02 0.02 0.03 0.04 0.03 0.03 0.03 0.04 0.04 0.05 0.06 0.05 0.03 0.04 0.05 0.06 0.07 0.08 0.09 0.10 0.09 0.08 0.09 0.09 0.09 0.10 0.12 0.14 0.15 0.16 0.17
0.00 0.00 0.01 0.01 0.01 0.02 0.02 0.02 0.03 0.02 0.02 0.02 0.02 0.02 0.03 0.04 0.04 0.03 0.03 0.03 0.03 0.03 0.03 0.03 0.03 0.05 0.08 0.09 0.09 0.11 0.17 0.16 0.11 0.09 0.09 0.09 0.10 0.12 0.14 0.17 0.21 0.24 0.25
0.00 0.00 0.01 0.01 0.01 0.01 0.02 0.03 0.04 0.04 0.03 0.02 0.03 0.03 0.04 0.03 0.03 0.03 0.03 0.02 0.02 0.02 0.02 0.03 0.03 0.05 0.08 0.09 0.09 0.10 0.14 0.13 0.12 0.11 0.08 0.07 0.09 0.13 0.18 0.20 0.22 0.26 0.32